Location: Newark
(13.8625°N, 100.5144°E)
Time: 16:53:26
(UTC+00:00)

LightSail 2 - Pass Details

Date: 11 May 2021
Orbit: 685 x 700 km, 24.0° (Epoch: 11 June)

Event Time Altitude Azimuth Distance (km) Brightness Sun altitude
Exits shadow 19:57:15 17° 40° (NE) 1,726 7.7 -38.7°
Drops below altitude 10° 19:58:42 10° 52° (NE) 2,128 8.3 -38.4°
Sets 20:01:28 0° 66° (ENE) 3,041 9.3 -37.9°
